Retour au catalogue

FLTSATCOM 7

USA 20

ActifMilitaireGEO
NORAD 17181·PAYLOAD·🇺🇸 United States

Lancé Dec 5, 1986 depuis Cape Canaveral Space Force Station

Loading…

TLE

FraisSource: Space-Track

Époque: Sep 14, 2026, 11:50 UTC

1 17181U 86096A   26257.49364858 -.00000089  00000-0  00000-0 0  9994
2 17181  12.6313 339.5198 0040981 329.7308  59.8590  0.98929513152851

Suivez FLTSATCOM 7 en temps réel avec AllMySat

Download on the App Store